User: anonymous   Login
Location: Cheching
(60.0667°N, 164.2167°W)
Time: 00:43:22
(UTC+00:00)
Language:

AO-91 - Orbit

View from above orbital plane
View from above orbital plane
View from above satellite
View from above satellite

Ground track
Ground track

The orbit data is extracted from the following two-line orbital elements,

1 43017U 17073E   21023.72934706  .00000822  00000-0  68172-4 0  9999
2 43017  97.7171 293.3926 0257055  52.6141 309.8177 14.79267452171726
Epoch (UTC): 23 January 2021 17:30:15
Eccentricity: 0.0257055
inclination: 97.7171°
perigee height: 451 km
apogee height: 812 km
right ascension of ascending node: 293.3926°
argument of perigee: 52.6141°
revolutions per day: 14.79267452
mean anomaly at epoch: 309.8177°
orbit number at epoch: 17172

The dashed part of the orbit path shows where the satellite is in the earth's shadow,  

DLR